ATS 1 1 02608U 66110A 10243.37597212 .00000118 00000-0 10000-3 0 1150 2 02608 7.1562 308.5668 0004976 184.1276 175.8955 1.00338891 76927 ATS 3 1 03029U 67111A 10242.54756141 -.00000093 00000-0 10000-3 0 6941 2 03029 8.7813 315.5395 0016208 57.4537 57.4431 1.00272213156781 ORIZURU (DEBUT) 1 20479U 90013B 10244.74267020 -.00000037 00000-0 -42399-5 0 6737 2 20479 99.0215 89.5976 0538689 244.8089 109.6237 12.83696513963682 SURFSAT 1 23711U 95059B 10244.52640112 -.00000121 00000-0 -15371-3 0 6010 2 23711 100.3208 239.5958 0368021 191.8184 167.4086 13.12575644710337 MAQSAT H 1 25023U 97066A 10244.46348906 .00000239 00000-0 16307-2 0 8353 2 25023 7.9649 326.3929 6499681 281.3202 16.8440 3.09506006145028 MAQSAT B 1 25024U 97066B 10243.54606387 .00000023 00000-0 98922-4 0 8820 2 25024 7.9936 323.3978 6509953 286.6537 15.0189 3.08768099144865 TEAMSAT 1 25025U 97066C 10243.58220259 .00000265 00000-0 18029-2 0 8753 2 25025 7.9997 338.7343 6514632 255.6975 28.5918 3.07913585144456 OPAL (OO-38) 1 26063U 00004C 10244.16592100 -.00000003 00000-0 19072-4 0 8903 2 26063 100.2054 116.8322 0037308 100.1369 260.4016 14.35904499555232 FALCONSAT 1 26064U 00004D 10245.11095882 -.00000032 00000-0 93554-5 0 8499 2 26064 100.2067 115.6944 0038451 105.0511 255.4946 14.35454954555217 PICOSAT 1 & 2 [TETHERED] 1 26080U 00004H 10244.20301899 .00000056 00000-0 36161-4 0 4125 2 26080 100.1889 143.8558 0032709 40.8253 319.5327 14.40442588554972 PICOSAT 3 1 26091U 00004J 10244.72495000 .00000228 00000-0 84525-4 0 9989 2 26091 100.1820 157.9566 0031893 355.3365 4.7510 14.43617076555129 PICOSAT 4 1 26092U 00004K 10244.93432874 .00000134 00000-0 60530-4 0 8304 2 26092 100.1790 138.3726 0035672 34.1795 326.1674 14.40424626554298 PICOSAT 5 1 26093U 00004L 10244.80322846 .00000237 00000-0 84547-4 0 7327 2 26093 100.1767 165.9708 0032604 334.5593 25.3998 14.45182719555831 PICOSAT 6 1 26094U 00004M 10245.17264715 .00000124 00000-0 58102-4 0 224 2 26094 100.1875 136.6360 0035384 46.0390 314.3699 14.39713164553800 SNAP 1 1 26386U 00033C 10244.68648063 .00000101 00000-0 28027-4 0 900 2 26386 98.3313 289.0631 0010856 249.7184 110.2841 14.65269422543817 CHAMP 1 26405U 00039B 10245.20653610 .00083685 18187-5 91428-4 0 5853 2 26405 87.2051 131.5398 0004355 88.4210 271.7567 16.09717602579995 PICOSAT 9 1 26930U 01043B 10245.21227876 -.00000067 00000-0 62961-5 0 5242 2 26930 67.0037 340.4976 0003181 219.2363 140.8513 14.30077530465947 PROBA-1 1 26958U 01049B 10245.13991314 -.00000007 00000-0 50907-5 0 486 2 26958 97.5636 295.3863 0081199 341.4412 18.3846 14.89845150481627 CUTE-1 (CO-55) 1 27844U 03031E 10244.01494572 .00000042 00000-0 39583-4 0 9252 2 27844 98.7105 251.9057 0009541 318.4807 41.5640 14.20726363371854 CANX-1 1 27847U 03031H 10244.46388823 .00000045 00000-0 41057-4 0 8425 2 27847 98.7031 253.1658 0008952 295.7007 64.3253 14.21027941371962 CUBESAT XI-IV (CO-57) 1 27848U 03031J 10244.47825564 .00000060 00000-0 48297-4 0 8739 2 27848 98.7157 251.4707 0009630 321.6210 38.4286 14.20518064371875 NAXING 1 1 28221U 04012B 10244.19959096 -.00000020 00000-0 33495-5 0 5832 2 28221 97.4551 259.0185 0011357 167.9137 192.2354 14.88053465345898 ST5-A 1 28980U 06008A 10245.11372736 .00005644 00000-0 32483-3 0 3876 2 28980 105.7149 251.3944 2338549 54.4182 325.2930 10.64996077171947 ST5-B 1 28981U 06008B 10244.06657314 .00010995 16035-5 36182-3 0 4649 2 28981 105.6175 281.4476 2292319 18.8734 348.4881 10.82906176173306 ST5-C 1 28982U 06008C 10244.32029584 .00007972 15014-5 31342-3 0 4629 2 28982 105.6564 273.4487 2310749 31.9243 340.2944 10.76909759172842 GENESIS 1 1 29252U 06029A 10244.97953430 .00000142 00000-0 23327-4 0 1369 2 29252 64.5118 21.7350 0026249 335.6525 24.3348 15.03703240227333 FALCONSAT-3 1 30776U 07006E 10245.23318697 .00000595 00000-0 45482-4 0 9050 2 30776 35.4348 296.4913 0000294 60.0773 299.9972 15.03790710191667 GENESIS 2 1 31789U 07028A 10244.96463429 .00000176 00000-0 25933-4 0 8820 2 31789 64.5086 53.4860 0022545 195.8140 164.2275 15.03379837174534 APRIZESAT 4 1 35684U 09041D 10244.76694538 .00000140 00000-0 27669-4 0 3521 2 35684 98.0921 145.6526 0050493 157.1218 203.2271 14.76100205 58862 APRIZESAT 3 1 35686U 09041F 10244.23866546 .00000079 00000-0 16374-4 0 3448 2 35686 98.0966 149.2468 0080145 151.3534 209.2117 14.82600209 59044 PROBA-2 1 36037U 09059B 10245.03513732 -.00000045 00000-0 00000+0 0 2529 2 36037 98.3100 72.2834 0014235 43.4957 316.7372 14.51995730 44107 PRISMA (MANGO) 1 36599U 10028B 10245.26860915 .00000027 00000-0 21492-4 0 2581 2 36599 98.2845 69.9594 0043000 318.2796 41.5059 14.40873639 11321 PRISMA (TANGO) 1 36827U 10028F 10245.26861074 -.00000139 00000-0 -29866-4 0 691 2 36827 98.2819 69.9587 0042692 318.0356 41.7509 14.40872922 3084